OV1-5 DEB, 5599

Orbit data source: Space-Track

OV1-5 DEB, 5599 is space debris in LEO originally from a launch on Wed, 30 Mar 1966 UTC launched from the Air Force Western Test Range (AFWTR). Debris objects in space refer to the collection of defunct objects orbiting the Earth. Examples of debris include non-operational satellites, rocket bodies, and fragments generated from explosions, collisions, or faulty payload assembly.

Loading next visibility...
Identifier
5599, 1966-025G
Orbit
LEO
Country
Flag of USUS
Related business
Flag of USAir Force Systems Command (OAR legacy assets) (US)
Manufacturer
Unknown
Mission
Spacecraft
Bus & Motor
Unknown
Mass
Unknown
Launch date (UTC)
1966-03-30 (60 years ago)
Launch vehicle
Unknown
Launch site
Air Force Western Test Range (AFWTR)
Object type
Payload
Rocket body
Debris
Shape & HBR
Unknown shape, 0.1 m
Radar Cross Section
Small (<0.1 m²)

Expand to show TLE details & history
Last TLE update: 14 hours ago

TLE from 14 hours ago
0 OV1-5 DEB
1  5599U 66025G   26129.36103792  .00047151  00000-0  33415-2 0  9994
2  5599 144.6110 313.3026 0013043 300.3021  59.6405 15.03110846 98808
Epoch: 2026-05-09T08:39Z
TLE epoch observation values (Epoch: 2026-05-09T08:39:53.676Z)
Latitude
-0°
Longitude
-43.85063°
Altitude
551.706 km
Speed
7.591 km/s
True Right ascension
20h 53m 12s
True Declination
0° 00' 00"
Sunlit
Object was in daylight at epoch
Visualization orbit readout
Latitude
Unknown
Longitude
Unknown
Altitude
Unknown
Speed
Unknown
Apparent Right ascension
Unknown
Apparent Declination
Unknown
Sunlit
N/A
Visualization observer readout
Local Sidereal Time
06:53:45
Azimuth
Unknown
Elevation
Unknown
Doppler factor
Unknown
Orbital elements
Apogee altitude
569.522 km
Perigee altitude
551.422 km
Semi-major axis
6,938.609 km
Eccentricity
0.0013
Inclination
144.611°
RAAN
313.3026°
Arg. of periapsis
300.3021°
True anomaly
59.76957°
Mean anomaly
59.6405°
Eccentric anomaly
59.70503°
Mean motion
3.75521 °/min
Orbital period
95.87 mins
BSTAR
0.0033415
Loading maneuver chart data...
Computing Atmospheric mass density...
Loading historical data...
Loading historical data...
Loading historical data...
Loading historical data...
Loading historical data...
Loading historical data...
Loading historical data...

Documentation

Showing up to 5 results
|